星链-34818 (STARLINK-34818)

导读 | 豆包AI

STARLINK-34818是美国SpaceX公司星链星座的卫星之一,于2025年8月18日由美国发射,是SpaceX年度密集星链发射任务中的组成部分。它运行于近地轨道,作为星链全球卫星互联网网络的节点,为全球偏远地区提供高速低延迟互联网接入服务,助力缩小数字鸿沟,同时可支撑应急通信、行业应用等多元需求,是星链星座规模扩张中重要的一环。

基本信息
目录编号:
65238
目录名称:
STARLINK-34818
国际标识:
2025-179D
轨道中心:
EARTH
卫星名称:
星链-34818
卫星全名:
星链-34818 (STARLINK-34818)
卫星状态:
在轨 (已飞行254 天)
发射日期:
2025-08-18 UTC
国别 :
美国 (US)
星等 :
--
轨道信息
数据来源 国际轨道数据
星历时间: 2026-04-29T08:31:04+0800
9小时前
查看轨道信息
半长轴: 6927.643km
偏心率: 0.0002033
轨道倾角: 97.558°
近地点辐角 142.744°
升交点赤经 162.577°
平近点角 217.393°
近地点: 548.097km
远地点: 550.915km
周期: 95.640分钟
每日圈数: 15.056518
详细信息
固有亮度:
5
最大亮度:
2.5
卫星平台:
Starlink V1.0
覆盖范围:
全球
运营商:
太空探索技术公司
运营商所在国:
美国
制造商(研发单位):
太空探索技术公司
制造商所在国:
美国
使用方式:
暂无
卫星简介
Starlink 计划是 SpaceX 推出的全球卫星互联网项目,通过发射低轨道卫星,为全球尤其是偏远地区提供高速、低延迟的互联网服务。自 2019 年起,Starlink 已部署数千颗卫星,旨在缩小全球数字鸿沟,推动互联网普及。该项目还为军事、航空等行业提供通信支持,带来广泛经济效益。
2D轨道图
3D轨道图
轨道高度分析图
轨道倾角分析图
轨道综合分析图
查看轨道综合分析图